SL-8 R/B

Satellite information

Favourite Embed

Satellite Type and Status

ROCKET BODYIN ORBIT

Key statistics

Satellite SL-8 R/B at a glance.

Uptime

16910

Days in orbit

Revolutions

≈ 13.8

Per day

Orbit

LEO

Low Earth Orbit

Inclination

83.0

Latest

Satellite identification and parameters

Extended collection of information and parameters for SL-8 R/B.

Object identification

Identified? True

Debris? False

Object name: SL-8 R/B

International designator: 1979-026B

Object number (NORAD): 11309

Object ID (CCSDS): 11309

Country: COMMONWEALTH OF INDEPENDENT STATES (CIS)

Current information (Y/N): Y

RCS size: LARGE

Orbital parameters

Period: 104.539 minutes

Inclination: 82.9694 deg

SMA: 7350.999 km

Apoapsis: 987.793 km

Periapsis: 957.936 km

RAAN: 7.176 deg

Eccentricy: 0.0020308

Argument of periapsis: 121.6039 deg

Mean anomaly: 238.7104 deg

Mean motion: 13.77473248 rev/day

Mean motion (dot): 0.00000155 rev/day2

B* drag term: 0.00013974 1/REarth

Two-line elements (TLE)

Creation date: July 6, 2025, 6:05 p.m.

Reference frame: TEME

Reference center: EARTH

Epoch: July 6, 2025, 2:38 p.m. UTC

TLE line 0: 0 SL-8 R/B

TLE line 1: 1 11309U 79026B 25187.61012796 .00000155 00000-0 13974-3 0 9991

TLE line 2: 2 11309 82.9694 7.1760 0020308 121.6039 238.7104 13.77473248324785

Live tracking on map

Real-time ground track for satellite SL-8 R/B.

In-orbit conjunctions

A list of the most updated potential collisions computed for object SL-8 R/B.

Target Orbit TCA Probability of collision Miss distance Type
FENGYUN 1C DEB SSO 2024-09-16 00:29:30 0.0003153304 341.0 (m) DEBRIS

Associated space launch

Navigation satellite providing location information for the Tsiklon-B navigation system

SL-8 R/B was lifted into orbit during the mission ‘Kosmos-3M | Parus 18’, on board a Kosmos-3M space rocket.

The launch took place on March 21, 1979, 4:13 a.m. from 132/2.

For more information about the launch, click the button.

Launch to space Kosmos-3M | Parus 18
Kosmos-3M | Parus 18

Agency: N/A

Status: Launch Successful

Launch date: March 21, 1979, 4:13 a.m. UTC

Rocket: Kosmos-3M

Launch pad: 132/2

Location: Plesetsk Cosmodrome, Russian Federation

...

Latest news about this satellite

There are no fresh news available about this satellite. Check back as we update our databases every day.


Newsletter sign-up

Weekly statistics, charts and insights to help you stay on top of the space industry.